User: anonymous   Login
Location: Unspecified
(0.0000°N, 0.0000°E)
Time: 01:55:44
(UTC+00:00)
Language:

JUGNU - Orbit

View from above orbital plane
View from above orbital plane
View from above satellite
View from above satellite

Ground track
Ground track

The orbit data is extracted from the following two-line orbital elements,

1 37839U 11058B   17147.45510007 +.00000318 +00000-0 +27665-4 0  9999
2 37839 019.9604 216.1888 0018871 315.4200 150.1758 14.12583620290656
Epoch (UTC): 27 May 2017 10:55:20
Eccentricity: 0.0018871
inclination: 19.9604°
perigee height: 837 km
apogee height: 864 km
right ascension of ascending node: 216.1888°
argument of perigee: 315.4200°
revolutions per day: 14.12583620
mean anomaly at epoch: 150.1758°
orbit number at epoch: 29065

The dashed part of the orbit path shows where the satellite is in the earth's shadow,  

DLR